Weather observations for the past three days for
Newark, Newark Heath Airport
Imperial (Metric)
Date Time (edt) Wind (mph) Vis. (mi.) Weather Sky Cond. Temperature (ºF) Relative Humidity Wind Chill (°F) Heat Index (°F) Pressure Precipitation (in)
Air Dwpt 6 hour altimeter (in) sea level (mb) 1 hr 3 hr 6 hr
Max. Min.
22 14:54 W 9 10.00 A Few Clouds FEW060 93.9 66.9 41% 98 29.99 1014.5
22 13:54 SW 10 G 20 10.00 Fair CLR 91.9 66 91.9 75.9 43% 95 30.01 1015.2
22 12:54 SW 9 G 20 10.00 Fair CLR 91 66.9 45% 94 30.04 1016.1
22 11:54 SW 12 10.00 A Few Clouds FEW050 90 66 45% 93 30.06 1016.9
22 10:54 W 5 10.00 Fair CLR 88 68 52% 92 30.07 1017.3
22 09:54 Calm 10.00 Fair CLR 84.9 69.1 59% 89 30.08 1017.7
22 08:54 Calm 10.00 Fair CLR 80.1 70 71% 83 30.1 1018.2
22 07:54 S 3 9.00 Fair CLR 75.9 70 75.9 69.1 82% 77 30.1 1018.4
22 06:54 Calm 5.00 Fog/Mist CLR 71.1 68 90% 30.11 1018.6
22 05:54 Calm 5.00 Fog/Mist CLR 69.1 66.9 93% 30.1 1018.5
22 04:54 Calm 5.00 Fog/Mist CLR 70 68 93% 30.1 1018.5
22 03:54 Calm 7.00 Fair CLR 72 69.1 91% 30.1 1018.3
22 02:54 Calm 8.00 Fair CLR 73 70 90% 30.09 1018.1
22 01:54 Calm 9.00 Fair CLR 73 70 90 73 90% 30.1 1018.2
22 00:54 Calm 10.00 A Few Clouds FEW065 75.9 71.1 85% 76 30.11 1018.5
21 23:54 Calm 10.00 A Few Clouds FEW065 78.1 72 82% 80 30.11 1018.8
21 22:54 Calm 10.00 Overcast BKN070 OVC090 80.1 72 76% 84 30.12 1018.9
21 21:54 Calm 10.00 A Few Clouds FEW070 81 71.1 72% 85 30.11 1018.7
21 20:54 Calm 10.00 Mostly Cloudy BKN070 84.9 70 61% 89 30.11 1018.6
21 19:54 S 5 10.00 A Few Clouds FEW075 90 68 93.9 90 48% 94 30.11 1018.5
21 18:54 SW 5 10.00 Mostly Cloudy BKN080 91 68 47% 95 30.1 1018.5
21 17:54 S 6 10.00 Mostly Cloudy BKN085 91.9 68 46% 96 30.11 1018.8
21 16:54 W 7 10.00 Mostly Cloudy SCT060 BKN090 BKN110 93 68 44% 97 30.13 1019.5
21 15:54 Vrbl 3 10.00 Partly Cloudy SCT060 93.9 68 43% 98 30.15 1019.9
21 14:54 Vrbl 3 10.00 Fair CLR 93 66 41% 96 30.16 1020.6
21 13:54 Vrbl 3 10.00 Fair CLR 91.9 68 93 75.9 46% 96 30.2 1021.7
21 12:54 Vrbl 5 10.00 Partly Cloudy SCT065 91 71.1 52% 98 30.22 1022.4
21 11:54 NW 3 10.00 Fair CLR 90 69.1 50% 95 30.23 1022.7
21 10:54 NW 5 10.00 Fair CLR 87.1 70 57% 92 30.23 1022.9
21 09:54 Calm 10.00 Fair CLR 84 70 63% 88 30.23 1022.9
21 08:54 SW 3 10.00 Fair CLR 80.1 70 71% 83 30.24 1023.1
21 07:54 Calm 10.00 Mostly Cloudy BKN065 75.9 70 75.9 66.9 82% 77 30.25 1023.4
21 06:54 Calm 7.00 Fair CLR 70 68 93% 30.24 1023.1
21 05:54 Calm 8.00 Fair CLR 69.1 66.9 93% 30.22 1022.6
21 04:54 Calm 9.00 Fair CLR 69.1 66 90% 30.22 1022.4
21 03:54 W 3 10.00 Fair CLR 71.1 66.9 87% 30.22 1022.4
21 02:54 Calm 10.00 Fair CLR 70 66.9 90% 30.23 1022.9
21 01:54 Calm 10.00 Fair CLR 71.1 66.9 87.1 71.1 87% 30.24 1023.2
21 00:54 Calm 10.00 Mostly Cloudy BKN065 73 68 84% 30.25 1023.5
20 23:54 Calm 10.00 Fair CLR 73 68 84% 30.26 1023.7
20 22:54 Calm 10.00 Fair CLR 75.9 68 77% 77 30.25 1023.5
20 21:54 Calm 10.00 Fair CLR 81 66 61% 83 30.25 1023.5
20 20:54 S 6 10.00 Fair CLR 84.9 66 53% 87 30.24 1023.1
20 19:54 S 7 10.00 Fair CLR 87.1 66.9 93 87.1 51% 90 30.23 1022.8
20 18:54 S 7 10.00 Fair CLR 90 64.9 44% 92 30.23 1022.8
20 17:54 SW 6 10.00 Partly Cloudy SCT060 91 64.9 42% 93 30.24 1023.0
20 16:54 Vrbl 6 G 17 10.00 Fair CLR 91 64.9 42% 93 30.25 1023.5
20 15:54 S 8 10.00 Fair CLR 91 64 41% 93 30.27 1024.4
20 14:54 Calm 10.00 Fair CLR 91 66 44% 94 30.29 1025.0
20 13:54 Calm 10.00 Fair CLR 89.1 64 90 72 43% 90 30.31 1025.4
20 12:54 Calm 10.00 Fair CLR 88 66.9 50% 91 30.32 1025.9
20 11:54 Calm 10.00 Fair CLR 87.1 66 50% 89 30.32 1025.9
20 10:54 Calm 10.00 Fair CLR 84 72 67% 90 30.32 1026.0
20 09:54 Calm 8.00 Fair CLR 79 72 79% 82 30.32 1026.1
20 08:54 Calm 8.00 Fair CLR 75.9 71.1 85% 76 30.33 1026.1
20 07:54 Calm 5.00 Fog/Mist CLR 72 70 72 66 94% 30.32 1025.8
20 06:54 Calm 0.25 Fog VV005 66.9 66 97% 30.31 1025.6
20 05:54 Calm 0.25 Fog VV004 66 66 100% 30.3 1025.4
20 04:54 Calm 0.25 Fog VV003 66.9 66 97% 30.3 1025.2
20 03:54 Calm 0.25 Fog VV003 69.1 66.9 93% 30.3 1025.2
20 02:54 Calm 0.25 Fog VV004 69.1 68 96% 30.3 1025.2
20 01:54 Calm 2.50 Fog/Mist CLR 70 69.1 86 70 97% 30.29 1025.1
20 00:54 Calm 5.00 Fog/Mist CLR 71.1 69.1 94% 30.28 1024.7
19 23:54 Calm 7.00 Fair CLR 72 70 94% 30.29 1025.0
19 22:54 Calm 10.00 Fair CLR 75 71.1 88% 75 30.29 1024.9
19 21:54 Calm 10.00 Fair CLR 75.9 71.1 85% 76 30.28 1024.5
19 20:54 SE 6 10.00 Fair CLR 82 70 67% 86 30.26 1023.8
19 19:54 SE 6 10.00 Fair CLR 86 69.1 88 84.9 57% 90 30.26 1023.7
19 18:54 Calm 10.00 Fair CLR 86 70 59% 91 30.26 1024.0
19 17:54 SE 7 10.00 Fair CLR 84.9 70 61% 89 30.27 1024.2
19 16:54 SE 6 10.00 Fair CLR 86 70 59% 91 30.27 1024.1
19 15:54 S 7 10.00 Fair CLR 86 71.1 61% 92 30.27 1024.2
Date Time (edt) Wind (mph) Vis. (mi.) Weather Sky Cond. Air Dwpt Max. Min. Relative Humidity Wind Chill (°F) Heat Index (°F) altimeter (in) sea level (mb) 1 hr 3 hr 6 hr
6 hour
Temperature (ºF) Pressure Precipitation (in)